Theta_e
312 311 310 305 303 297 291 290 293 290 289 289 289 289 288 288 292 292 290 289 289 288 288 288 288 287 288 287 288 287 287 287 288 288 288 287 288 287 286 287 286 285 286 288 288 289 288 283 284 284 283 282 282 282
313 312 310 308 304 299 292 293 292 290 290 289 289 289 288 290 292 291 290 290 289 288 288 287 287 288 288 287 288 288 287 286 287 287 286 287 287 286 285 288 283 287 284 285 285 287 285 282 282 283 281 281 282 282
315 312 310 307 302 298 294 295 292 290 289 289 289 289 288 290 289 289 290 289 288 287 287 286 289 288 289 288 287 288 287 287 286 286 286 287 287 287 287 287 285 282 279 282 282 283 282 281 282 282 281 281 281 283
317 313 310 307 302 299 297 295 292 290 291 290 289 288 288 287 287 287 288 288 287 287 287 286 288 287 287 288 288 288 288 287 286 285 285 286 287 284 286 283 282 281 279 280 282 282 281 282 281 280 280 281 282 284
317 312 309 305 301 301 297 295 291 292 291 289 288 287 287 286 286 286 287 287 287 287 287 287 286 287 286 287 287 287 287 286 286 285 285 286 283 283 280 280 281 279 279 281 283 280 279 279 280 281 279 281 283 283
314 311 305 302 303 300 296 292 292 292 289 288 287 287 286 286 287 287 287 287 287 286 286 287 286 286 287 287 287 287 286 286 286 284 283 281 281 281 283 282 278 278 277 277 278 278 278 279 280 281 281 282 282 282
311 307 302 302 300 299 295 294 293 290 290 288 287 286 286 287 288 286 286 287 287 286 285 285 285 286 286 285 286 287 286 286 285 283 281 281 279 280 281 282 278 278 278 278 278 278 278 280 280 282 281 283 283 283
304 304 302 300 299 296 294 293 292 292 291 288 286 288 290 288 287 286 287 286 286 286 285 284 285 284 284 284 285 286 286 285 283 282 279 280 278 277 280 278 278 278 278 279 279 278 279 280 281 282 282 283 283 283
303 302 300 300 297 294 293 292 291 292 289 286 289 290 289 288 287 286 285 286 285 285 285 282 284 286 282 283 284 285 285 286 282 283 281 280 280 281 280 278 278 278 277 278 279 280 280 281 281 282 282 282 282 282
302 300 300 297 295 294 292 290 292 289 287 290 291 290 288 287 285 285 286 285 284 283 282 280 279 283 281 281 283 283 285 286 285 283 279 281 282 278 279 278 278 278 278 278 278 280 280 281 281 282 282 282 282 282
301 300 298 295 294 293 290 292 289 289 290 289 288 286 286 285 285 285 283 282 280 281 280 279 279 280 279 282 283 282 284 284 285 283 283 282 282 279 278 278 278 279 279 279 279 280 280 280 281 282 282 282 282 282
299 298 295 294 293 292 292 290 289 289 288 286 285 285 284 284 283 282 278 277 279 282 278 279 278 278 278 280 281 282 283 281 285 280 282 283 281 279 278 279 279 279 279 280 280 280 281 281 282 282 282 282 282 282
297 295 294 294 292 292 290 289 288 286 285 284 284 284 283 281 282 284 282 281 280 278 278 277 278 278 278 279 281 281 283 284 281 282 284 282 278 279 278 279 279 279 280 280 280 281 281 281 282 282 282 282 282 282
295 294 293 293 292 290 289 289 286 284 284 284 284 282 282 283 282 281 282 281 278 278 278 277 277 278 279 280 282 282 282 281 282 282 284 280 279 279 278 279 279 280 280 280 280 281 281 281 281 282 282 282 282 282
294 292 292 292 290 290 289 287 285 284 284 284 284 285 280 278 278 278 279 278 278 277 277 277 277 278 279 279 281 281 281 282 283 284 281 278 279 278 278 279 279 280 280 280 280 280 281 281 281 281 282 282 282 282
292 292 292 290 289 288 286 285 284 284 284 283 281 279 277 279 277 277 278 277 277 277 277 277 275 276 278 279 280 281 281 282 283 279 278 278 279 278 278 279 279 280 280 280 280 280 280 281 281 281 281 282 281 282
292 291 290 289 287 285 284 283 283 284 283 282 280 280 280 281 281 279 278 278 277 277 278 276 276 279 277 278 278 279 280 281 278 278 278 278 279 278 278 279 279 279 280 280 279 279 280 280 280 281 281 281 281 281
291 290 289 288 285 283 283 284 284 283 281 280 280 280 280 281 280 279 278 278 277 277 277 277 276 276 277 278 280 279 278 278 278 278 278 279 279 278 278 278 279 279 279 280 279 279 279 280 280 280 280 280 281 281
291 290 289 285 284 284 284 284 284 282 279 279 279 280 280 280 279 279 278 278 277 277 277 276 274 276 278 276 278 279 279 278 278 278 278 278 279 278 278 278 278 279 279 279 279 279 279 279 279 280 280 280 281 281
290 289 285 284 284 285 284 283 283 282 279 279 279 279 279 279 278 277 277 277 277 277 275 273 275 277 278 280 280 279 279 278 278 278 278 278 279 278 278 278 278 279 279 279 278 278 278 278 279 279 279 279 280 280
288 285 283 284 284 284 283 283 282 280 278 279 278 279 278 277 277 276 276 276 276 276 275 278 279 280 279 279 279 278 278 278 278 278 279 279 279 278 278 278 278 278 278 278 278 278 278 278 278 279 279 279 279 280
284 283 284 284 284 283 282 280 280 279 279 278 278 278 277 276 276 276 275 275 276 278 279 279 280 279 279 279 278 278 278 278 278 278 278 279 279 278 278 278 278 278 278 278 277 278 278 278 278 279 279 279 279 279
284 284 284 284 283 281 277 280 279 278 277 275 276 275 274 275 274 274 273 275 277 279 279 279 278 278 278 277 277 278 278 278 278 278 278 278 278 278 277 278 278 278 278 278 278 277 278 278 278 278 279 279 279 279
284 284 284 283 282 276 279 278 277 277 275 273 271 271 270 273 273 272 271 276 279 280 280 279 278 277 276 276 276 277 278 278 278 278 278 278 278 277 277 277 277 277 277 277 277 278 278 278 278 278 278 278 279 279
284 280 281 278 278 278 273 272 272 273 272 264 268 270 270 271 269 268 272 278 280 281 280 279 278 276 275 275 276 277 277 278 278 279 278 278 277 277 277 277 276 276 276 277 277 277 277 278 278 278 278 278 279 279
278 278 278 276 276 276 274 274 271 272 268 265 268 269 270 269 269 274 275 281 282 281 281 280 279 277 276 276 277 277 277 278 278 278 278 278 277 277 277 277 277 277 277 277 277 277 277 277 277 277 278 278 279 279
275 274 277 277 277 277 275 274 274 273 267 271 269 267 268 272 272 276 281 281 280 281 280 279 278 278 278 277 277 277 277 278 278 278 278 277 276 276 276 276 277 277 277 277 277 277 277 277 277 277 277 277 278 278
277 276 274 276 277 277 273 272 268 269 271 274 273 270 271 274 276 280 280 280 281 281 280 279 279 278 278 277 277 277 278 278 278 278 277 276 276 276 276 277 277 277 277 277 277 277 277 277 277 277 277 277 277 277
276 276 277 275 276 277 277 276 276 276 276 276 273 272 276 278 279 280 280 280 280 280 280 279 279 279 278 278 278 278 278 278 278 278 278 278 277 277 277 277 277 277 277 276 276 276 276 276 277 277 277 277 277 277
276 277 277 275 273 272 277 277 276 276 276 275 275 276 276 278 279 279 279 279 279 279 279 279 278 278 278 278 278 278 278 278 278 278 278 278 277 277 277 277 277 277 277 276 276 277 277 276 276 276 276 276 276 276
276 276 276 276 276 276 276 275 275 275 274 274 274 273 274 275 277 278 278 277 277 277 278 278 278 278 278 278 278 278 278 278 278 278 278 278 277 277 278 278 277 277 277 276 277 277 277 277 277 277 277 276 276 276
276 276 276 270 275 275 275 275 274 273 272 272 273 273 273 274 275 277 277 277 278 278 278 277 277 277 278 278 277 277 277 278 278 278 278 278 277 277 278 278 278 277 277 276 276 276 276 276 276 276 276 275 275 275
275 275 276 276 275 274 274 274 273 272 272 272 273 272 272 273 274 277 278 278 277 277 278 278 277 277 277 277 277 277 277 277 278 278 278 278 277 277 277 277 278 278 278 277 277 277 276 276 276 276 275 275 275 275
Wind_Speed
39 37 34 31 26 24 21 18 14 11 8 6 4 3 2 2 3 5 4 4 3 3 5 5 4 3 2 2 2 6 3 5 4 5 3 3 3 3 4 4 4 4 6 5 5 5 5 25 9 9 13 27 29 31
42 41 38 34 28 26 25 22 17 13 10 6 5 4 4 3 4 5 6 5 5 5 5 8 11 12 11 10 5 3 1 1 3 2 1 2 3 2 4 5 2 1 2 3 3 4 14 15 11 15 24 27 28 33
45 45 42 36 30 30 30 24 20 15 11 9 7 5 5 5 6 6 8 8 6 4 4 1 2 1 1 4 7 3 1 1 0 3 2 2 4 2 4 4 4 2 1 3 6 3 14 23 5 23 26 28 30 29
46 49 46 38 35 34 30 25 20 15 12 10 7 7 7 6 7 7 7 6 4 2 1 1 1 2 3 4 6 9 10 6 5 1 2 2 3 1 2 3 3 2 4 3 7 6 22 3 25 26 30 28 27 24
51 51 46 40 39 33 28 26 21 18 14 10 8 7 6 6 6 5 4 5 4 2 1 1 2 1 3 7 9 10 10 10 6 2 2 2 2 2 1 2 3 0 2 2 3 14 12 24 27 28 28 28 25 23
53 52 45 43 37 32 30 27 24 18 13 9 8 7 5 4 2 2 2 4 3 1 1 1 1 2 3 5 7 10 11 10 6 4 3 2 3 1 2 3 2 3 9 10 9 18 22 28 23 20 23 22 20 17
56 51 46 43 39 31 31 27 22 17 12 9 7 6 4 3 3 2 2 3 2 3 1 1 2 1 5 5 3 3 4 4 5 3 2 2 4 1 2 3 5 12 14 16 13 14 13 11 19 23 20 17 15 15
56 50 48 45 36 33 30 26 22 16 11 10 7 8 9 4 4 4 4 3 3 1 2 1 1 1 6 3 2 2 2 3 2 2 1 2 2 1 3 3 11 13 15 7 8 14 16 19 17 16 15 15 15 16
53 50 49 40 35 34 30 26 20 15 13 10 13 13 7 4 4 4 3 3 2 1 2 2 0 1 7 3 3 2 2 2 1 2 1 2 1 4 1 6 11 12 10 15 15 11 9 10 12 12 14 14 15 16
52 51 42 37 36 34 29 24 20 16 15 21 21 7 5 5 5 6 3 2 1 1 2 3 0 1 5 4 2 3 1 1 1 1 2 2 3 4 3 8 10 10 10 11 13 12 12 11 12 12 12 11 12 13
53 45 39 40 37 33 28 23 19 22 20 19 9 5 8 9 5 3 2 1 2 2 2 1 0 2 3 2 2 1 2 1 2 2 2 1 2 2 4 5 6 7 7 7 7 8 7 8 8 9 10 10 10 11
48 41 42 40 36 31 26 21 23 25 14 9 6 11 8 4 2 2 1 1 1 1 2 1 1 3 3 2 1 1 2 0 2 1 2 2 2 2 3 3 4 5 5 5 5 5 5 6 6 7 8 9 10 9
42 44 42 38 32 27 23 22 22 16 13 13 4 5 4 2 2 4 3 1 2 5 4 1 2 2 1 2 3 1 2 2 1 2 3 2 3 2 1 2 3 4 4 4 4 4 5 6 6 7 8 8 9 11
45 41 39 33 29 25 20 24 22 18 11 4 6 3 2 2 2 2 2 2 4 5 3 1 1 0 1 2 2 2 0 1 2 2 3 1 5 4 2 1 1 2 2 3 4 5 5 5 7 8 9 10 11 13
43 38 32 29 25 22 24 23 20 20 5 4 4 3 3 4 3 7 7 5 5 6 4 2 1 0 1 2 2 2 2 3 4 3 1 5 6 4 2 1 1 0 1 1 3 3 4 4 6 8 9 10 11 11
40 34 30 27 22 26 24 21 23 12 3 3 3 5 6 4 4 6 7 6 8 7 4 2 2 1 2 2 2 5 2 4 1 2 4 7 5 4 3 2 1 1 0 1 1 2 2 4 5 7 8 9 11 10
42 34 28 24 27 25 25 22 13 6 4 3 2 5 8 5 8 8 10 9 11 8 2 3 2 3 1 1 3 4 4 1 2 5 8 7 6 4 3 3 2 2 2 1 1 2 2 3 3 4 6 8 8 11
33 31 26 27 29 27 22 8 6 4 3 3 4 10 8 7 10 9 9 13 9 7 5 3 3 2 4 3 3 3 6 4 4 8 8 7 6 4 4 4 3 3 3 3 1 1 1 2 2 3 5 6 6 8
34 32 25 28 28 14 7 7 4 4 2 5 9 12 7 7 6 8 9 12 9 8 4 4 2 3 4 8 6 5 6 7 8 11 9 8 6 5 4 5 4 4 4 3 4 3 3 3 4 4 4 5 5 6
29 27 30 30 18 5 4 4 5 4 5 7 10 10 6 4 9 10 10 12 9 5 4 4 8 7 8 7 7 7 7 9 11 11 11 10 8 7 7 6 6 6 6 6 6 5 5 4 4 5 5 5 5 6
31 32 30 21 7 3 4 5 4 4 8 4 11 9 4 9 7 9 9 12 8 6 7 14 18 13 12 11 9 8 7 10 12 12 8 10 9 9 8 8 8 7 7 8 8 8 8 7 6 6 6 6 6 6
33 31 23 11 3 4 4 4 6 8 4 7 10 6 3 4 5 7 8 10 8 11 13 13 13 11 14 13 11 10 9 11 11 12 9 8 11 11 10 10 10 9 9 8 8 8 8 8 7 7 6 7 7 7
30 22 9 4 3 3 3 8 2 4 3 8 6 3 2 3 4 6 4 8 9 13 16 17 16 13 11 11 11 11 11 13 13 13 10 8 10 11 10 10 10 10 9 8 8 8 8 7 8 8 9 8 8 8
21 6 3 3 3 4 7 3 3 4 5 3 2 1 2 4 4 3 3 6 10 10 10 10 11 11 11 12 14 13 12 13 13 13 12 10 11 11 11 11 11 10 9 8 8 8 8 7 7 8 9 9 10 9
4 2 2 4 3 4 3 2 2 2 2 2 2 1 2 4 1 2 3 5 6 6 9 10 10 10 10 9 11 12 12 13 14 13 11 11 12 12 12 11 11 10 10 9 9 9 9 8 8 8 9 9 9 10
4 2 2 2 3 3 4 3 4 4 3 2 4 2 3 2 1 5 4 3 5 8 7 8 8 9 10 10 10 11 11 12 13 13 12 12 12 10 10 10 10 10 10 10 10 10 10 10 9 9 10 10 10 9
3 1 2 4 4 5 5 4 4 3 3 4 4 4 2 2 5 4 3 3 7 7 5 6 7 7 7 8 9 9 10 12 13 12 11 11 12 12 11 9 9 9 9 9 10 10 10 9 10 10 11 10 10 9
4 3 4 6 3 3 5 3 3 4 3 5 7 3 5 6 4 1 1 3 5 5 5 7 9 9 9 8 9 10 12 14 13 13 11 12 12 12 11 10 9 9 9 9 9 9 9 10 10 10 10 10 9 9
3 5 5 3 3 2 3 4 4 4 5 7 4 3 4 5 3 3 5 8 9 8 7 9 10 11 11 10 10 12 13 14 15 15 14 13 13 12 11 10 9 10 10 10 10 10 9 9 9 9 9 9 9 8
3 4 3 3 3 3 3 4 4 5 7 10 7 9 14 19 20 17 16 14 14 12 11 11 12 14 13 12 12 14 15 15 15 14 13 12 9 10 10 10 10 11 11 11 11 10 9 9 9 8 8 8 8 8
5 3 2 2 2 3 3 4 8 11 12 10 14 16 20 17 22 18 17 18 20 21 20 18 17 18 18 17 16 15 15 15 15 16 15 14 12 11 11 11 11 11 11 11 11 10 9 9 8 8 8 7 7 7
3 2 2 1 1 2 5 2 3 3 3 3 4 5 6 6 5 4 5 6 7 7 8 15 20 18 18 18 16 15 14 13 14 15 16 16 13 12 13 12 14 13 12 12 12 11 10 9 9 8 8 7 7 7
3 2 1 0 1 1 2 4 2 2 4 3 3 3 4 4 5 4 5 6 6 6 6 7 11 18 20 20 20 18 16 15 13 14 16 17 17 16 14 14 14 14 14 14 13 11 10 9 9 8 8 8 8 7
Wind_Direction
220 220 220 218 216 204 202 198 202 218 224 226 238 253 270 270 267 295 308 323 280 263 278 253 242 234 260 243 295 329 307 21 355 25 357 6 303 2 295 320 348 336 341 351 330 344 356 4 356 25 319 318 322 327
222 220 221 220 216 200 197 198 188 211 221 223 231 243 259 260 256 282 290 282 285 272 270 285 287 284 260 253 257 301 306 312 5 331 348 306 307 286 337 317 109 319 21 305 296 319 331 335 314 338 334 326 327 325
227 221 221 218 206 196 201 196 181 202 204 218 224 236 248 253 267 274 276 275 265 263 292 36 79 80 291 245 214 248 249 315 16 317 278 287 271 312 302 311 299 133 101 262 317 78 318 321 344 334 334 330 328 330
232 221 219 216 203 200 206 184 178 191 205 210 220 235 249 266 288 283 268 272 252 240 223 184 168 277 252 232 216 231 258 295 269 285 225 261 273 7 285 325 275 357 306 320 267 307 331 152 337 334 328 334 335 339
234 220 215 204 198 205 192 174 176 187 200 205 220 238 258 276 281 268 263 246 213 224 216 225 288 359 226 237 249 253 259 278 252 231 202 235 245 275 295 292 247 11 324 299 295 322 302 294 316 332 328 332 336 343
232 218 201 194 203 197 181 168 179 188 188 208 223 241 260 272 234 244 175 180 175 320 350 156 243 255 267 269 275 268 266 263 221 226 204 212 179 244 266 269 183 277 288 265 272 298 295 299 315 334 328 335 345 348
223 207 191 197 192 189 169 171 173 179 182 205 220 233 227 173 192 197 174 153 205 330 138 355 319 258 306 295 276 284 286 229 216 207 220 180 176 224 237 256 162 313 310 304 295 317 310 324 320 339 338 349 359 7
199 195 191 192 187 172 166 164 177 173 180 202 198 168 168 172 147 134 157 191 261 260 132 111 271 312 357 320 325 289 252 214 211 202 213 210 169 203 249 251 316 325 324 307 315 316 303 316 330 338 350 0 12 20
189 188 191 185 177 165 159 175 170 171 186 172 151 170 169 193 188 169 169 133 147 159 126 87 52 265 342 352 299 306 257 235 217 231 206 224 185 230 208 302 320 331 324 312 323 328 330 338 345 353 1 12 18 23
189 190 185 177 163 157 174 170 170 173 164 156 170 171 193 182 159 145 147 174 146 75 82 97 217 279 339 345 342 327 286 324 260 94 127 241 266 240 302 320 319 327 327 324 326 341 348 354 0 3 10 15 22 25
189 184 176 166 156 170 172 165 166 156 163 165 180 176 160 155 144 169 138 74 11 64 39 86 78 316 346 326 317 339 317 350 271 111 267 264 258 218 305 321 330 337 333 335 328 330 333 341 354 4 15 23 26 27
182 175 167 159 167 169 161 164 170 174 175 170 155 132 143 172 159 127 32 326 256 181 171 169 256 284 304 289 271 280 270 338 255 110 251 252 225 225 316 353 2 355 358 6 4 5 16 20 20 20 27 34 36 35
170 167 157 165 165 159 161 167 172 167 158 140 147 144 158 160 115 185 189 195 226 182 178 240 287 266 282 253 262 276 254 238 54 228 246 246 184 204 272 20 12 3 8 20 25 35 36 40 43 48 49 54 53 51
163 157 161 158 157 158 166 169 165 161 156 163 163 152 197 176 244 177 159 137 153 152 160 183 218 179 257 260 257 250 265 252 248 239 237 184 186 193 187 62 24 14 18 34 38 44 42 50 59 58 58 61 61 57
155 158 153 155 156 167 165 168 168 167 172 180 167 192 188 149 127 142 134 139 156 159 146 139 125 250 255 270 242 300 248 245 229 238 241 180 173 194 174 186 134 26 359 35 57 58 53 62 67 62 61 60 60 65
146 148 159 160 170 163 171 161 164 175 212 168 156 121 136 129 153 170 174 163 162 153 137 114 107 86 246 238 229 223 209 233 209 216 196 174 184 194 186 201 166 137 59 103 78 81 76 73 71 70 73 71 67 71
157 150 161 165 163 157 153 155 161 194 179 148 144 154 152 122 168 170 176 174 166 157 152 148 158 212 56 241 246 203 224 251 224 205 183 188 194 204 204 205 188 181 202 195 130 98 87 84 76 77 93 86 83 75
151 152 161 166 153 151 152 158 178 165 131 143 173 167 149 140 149 161 170 170 163 171 168 204 157 187 213 216 230 231 224 249 214 191 192 193 194 198 206 211 197 193 202 206 168 121 120 114 137 128 113 115 115 103
151 155 160 152 152 139 153 171 171 139 134 140 149 149 138 156 169 165 167 173 178 175 177 173 178 218 227 217 234 230 233 231 219 206 201 199 201 200 207 205 195 189 187 195 189 175 169 168 162 150 144 134 135 123
152 153 156 156 155 144 127 113 140 133 142 154 159 156 145 165 170 172 170 175 178 187 202 212 222 223 222 240 244 253 258 227 208 205 208 204 208 209 211 209 203 196 199 203 202 193 184 175 167 160 154 146 141 137
160 153 157 162 145 118 110 126 114 109 129 147 157 155 159 167 178 183 184 192 196 224 236 236 241 251 247 255 256 250 237 209 210 216 218 212 212 209 213 212 203 200 202 202 200 201 202 198 182 171 159 155 149 147
151 153 152 149 132 113 92 104 120 126 130 144 155 169 171 189 184 188 189 196 234 236 225 250 260 253 250 253 250 241 224 215 218 215 220 218 214 211 207 204 199 197 199 203 202 202 203 195 188 180 175 170 160 157
148 150 145 141 114 90 117 139 123 128 118 167 152 168 189 187 177 177 237 230 247 253 249 251 255 258 253 246 236 230 220 217 219 214 211 216 210 208 208 207 201 201 200 197 195 190 196 196 189 187 184 173 167 169
143 148 133 113 107 117 138 118 118 116 122 159 150 209 221 175 176 213 253 250 244 254 255 257 251 247 247 243 230 225 221 217 212 210 212 217 216 211 208 208 205 200 196 196 194 188 184 192 182 180 182 178 174 171
150 50 136 72 109 118 89 87 62 124 148 187 108 276 186 173 186 234 242 264 258 274 264 250 247 245 246 243 221 220 219 216 214 212 213 214 210 208 206 205 206 201 196 194 193 189 180 180 183 175 176 175 175 172
79 37 63 120 128 129 165 130 182 183 135 143 215 161 155 149 169 243 232 257 278 303 284 259 253 242 237 220 215 222 221 213 208 206 208 215 213 206 212 209 207 202 198 193 192 192 186 181 177 177 175 171 169 170
105 184 114 113 120 133 106 107 136 149 150 189 172 154 130 204 248 252 262 287 310 305 274 237 235 239 232 227 225 219 214 209 206 205 203 202 200 199 196 206 212 208 200 194 191 187 183 180 181 187 181 173 169 168
101 131 154 150 128 143 134 126 141 192 201 168 154 191 189 202 240 252 273 335 346 309 266 245 229 213 210 217 219 221 213 206 200 200 201 203 204 205 205 205 204 199 193 189 185 181 178 177 177 178 179 178 178 175
114 130 131 103 111 144 187 180 193 183 182 184 192 235 243 237 250 286 294 291 301 304 277 253 240 231 223 221 222 218 217 218 209 206 208 210 210 208 207 204 198 191 188 183 178 173 171 169 169 167 168 166 167 167
118 136 118 138 143 211 185 195 197 215 225 230 249 269 272 277 284 286 283 273 273 277 266 244 233 235 236 234 231 224 219 215 215 220 224 213 216 214 212 207 198 192 188 184 182 181 177 173 172 171 172 173 172 172
139 135 122 147 175 190 216 263 275 273 268 265 263 262 273 290 296 291 277 272 265 260 256 251 245 233 227 228 231 230 229 226 223 218 215 206 207 204 205 204 202 198 195 193 192 189 188 193 195 193 193 193 194 196
139 160 165 91 180 269 298 280 288 274 275 264 266 256 284 279 277 282 308 325 315 293 269 242 237 237 233 230 230 229 232 230 226 222 216 208 208 208 209 208 205 201 201 201 200 202 204 205 205 206 208 210 212 214
123 141 150 264 232 241 289 314 288 293 256 261 261 265 259 259 263 271 291 308 316 318 314 279 240 227 228 225 223 222 225 224 223 221 218 215 211 211 214 215 216 212 208 206 206 208 212 216 219 221 223 225 227 231